Temp
-21 -21 -21 -21 -21 -21 -21 -21 -21 -21 -20 -20 -20 -20 -20 -20 -20 -20 -20 -20 -20 -19 -18 -18 -18 -18 -17 -16 -16 -16 -16 -16 -14 -13 -14 -15 -15 -15 -15 -15 -15 -15 -14
-22 -22 -22 -22 -22 -22 -22 -22 -22 -22 -22 -22 -21 -21 -21 -21 -21 -21 -21 -21 -21 -21 -21 -21 -20 -20 -19 -19 -18 -17 -17 -17 -16 -14 -15 -15 -15 -15 -16 -16 -15 -15 -15
-23 -23 -23 -23 -23 -23 -23 -23 -23 -23 -23 -22 -22 -22 -22 -21 -22 -22 -22 -22 -22 -22 -21 -22 -21 -20 -20 -20 -20 -19 -19 -19 -18 -17 -16 -16 -16 -16 -16 -17 -17 -16 -16
-23 -23 -23 -23 -23 -23 -23 -23 -23 -23 -23 -23 -23 -23 -22 -22 -22 -22 -22 -22 -22 -21 -22 -22 -21 -21 -21 -21 -21 -21 -21 -20 -21 -20 -19 -18 -18 -18 -18 -17 -18 -17 -17
-24 -25 -25 -25 -25 -26 -26 -26 -26 -25 -25 -25 -24 -24 -24 -23 -23 -22 -22 -22 -22 -22 -22 -21 -21 -21 -21 -22 -22 -22 -22 -22 -21 -20 -20 -20 -19 -18 -19 -19 -18 -19 -18
-27 -27 -28 -28 -29 -29 -29 -29 -29 -28 -28 -28 -28 -27 -27 -27 -26 -25 -24 -23 -22 -22 -21 -22 -22 -22 -22 -22 -22 -22 -22 -22 -22 -22 -21 -20 -20 -20 -20 -20 -19 -19 -19
-29 -29 -30 -30 -30 -30 -30 -30 -30 -30 -30 -30 -30 -29 -29 -29 -29 -28 -27 -26 -25 -24 -24 -24 -23 -23 -23 -23 -24 -24 -23 -23 -22 -22 -22 -21 -21 -20 -20 -20 -20 -19 -19
-30 -30 -31 -31 -31 -31 -31 -31 -30 -30 -30 -30 -30 -30 -29 -29 -29 -29 -29 -28 -28 -27 -26 -26 -25 -25 -24 -24 -24 -25 -25 -24 -24 -23 -23 -22 -22 -21 -21 -20 -20 -21 -20
-31 -31 -31 -31 -31 -31 -31 -31 -31 -31 -30 -30 -30 -30 -29 -29 -29 -28 -28 -28 -28 -28 -28 -28 -27 -27 -27 -26 -26 -25 -25 -25 -25 -24 -24 -24 -23 -22 -22 -21 -20 -20 -21
-32 -32 -32 -32 -32 -32 -31 -31 -31 -31 -30 -30 -30 -30 -29 -29 -29 -28 -28 -28 -28 -28 -28 -28 -28 -28 -28 -28 -28 -27 -26 -25 -26 -26 -25 -25 -24 -23 -23 -22 -21 -20 -20
-32 -32 -32 -32 -32 -32 -32 -31 -32 -31 -31 -31 -31 -31 -31 -30 -30 -30 -30 -30 -30 -30 -30 -30 -31 -30 -30 -28 -28 -28 -27 -27 -27 -27 -26 -25 -25 -25 -24 -24 -23 -22 -22
-32 -32 -33 -33 -33 -33 -32 -32 -32 -32 -32 -32 -32 -31 -30 -30 -29 -29 -29 -30 -30 -30 -30 -30 -30 -30 -30 -30 -30 -29 -28 -27 -27 -27 -27 -27 -26 -26 -25 -25 -24 -24 -23
-33 -33 -33 -33 -34 -34 -33 -33 -33 -34 -33 -33 -32 -31 -31 -30 -30 -30 -30 -30 -30 -30 -31 -31 -31 -31 -30 -30 -30 -30 -29 -29 -28 -27 -27 -27 -27 -27 -27 -27 -26 -25 -25
-34 -34 -34 -34 -35 -34 -34 -34 -34 -34 -33 -32 -32 -31 -31 -30 -30 -31 -31 -31 -31 -31 -32 -32 -32 -31 -30 -29 -30 -30 -30 -30 -29 -29 -28 -27 -28 -28 -28 -28 -28 -27 -26
-34 -35 -35 -36 -35 -35 -35 -35 -35 -34 -33 -32 -32 -31 -31 -31 -31 -31 -31 -31 -31 -32 -31 -31 -31 -32 -32 -31 -30 -30 -30 -31 -30 -29 -29 -29 -28 -28 -28 -29 -29 -29 -28
-36 -36 -37 -36 -36 -36 -35 -35 -35 -34 -34 -33 -32 -32 -31 -31 -30 -31 -31 -32 -32 -32 -31 -32 -32 -32 -32 -31 -31 -30 -31 -31 -31 -30 -29 -29 -29 -29 -28 -29 -29 -29 -29
-37 -37 -37 -37 -37 -36 -36 -35 -34 -35 -34 -33 -32 -32 -32 -31 -31 -31 -31 -32 -32 -32 -32 -33 -33 -33 -33 -32 -31 -31 -31 -31 -31 -30 -29 -29 -31 -31 -30 -30 -29 -29 -29
-38 -38 -38 -38 -37 -36 -36 -35 -34 -34 -33 -34 -34 -33 -32 -32 -32 -32 -32 -32 -33 -33 -33 -34 -34 -34 -34 -33 -32 -31 -31 -31 -31 -30 -30 -31 -32 -32 -32 -31 -30 -30 -30
-39 -38 -38 -38 -37 -36 -36 -35 -34 -34 -34 -33 -33 -33 -33 -32 -32 -32 -32 -33 -34 -34 -34 -35 -35 -35 -34 -34 -33 -32 -31 -31 -31 -31 -32 -32 -32 -32 -32 -32 -31 -31 -30
-39 -39 -38 -38 -37 -36 -35 -35 -35 -34 -34 -33 -33 -33 -33 -33 -33 -33 -33 -33 -34 -34 -35 -35 -35 -35 -35 -34 -34 -33 -33 -32 -32 -33 -33 -33 -33 -33 -33 -33 -32 -32 -32
-39 -39 -38 -38 -37 -36 -36 -35 -35 -34 -34 -34 -33 -33 -33 -33 -32 -33 -34 -34 -35 -35 -35 -35 -36 -36 -36 -35 -35 -35 -35 -34 -34 -34 -34 -34 -34 -34 -34 -34 -34 -33 -33
-39 -39 -39 -38 -36 -36 -35 -35 -35 -34 -34 -34 -34 -34 -33 -34 -34 -34 -35 -35 -35 -35 -35 -35 -36 -36 -36 -36 -36 -36 -35 -35 -35 -35 -35 -35 -35 -35 -35 -35 -34 -34 -33
-39 -39 -38 -37 -36 -36 -35 -35 -35 -34 -34 -34 -34 -34 -35 -35 -36 -36 -36 -36 -35 -35 -35 -35 -35 -36 -37 -37 -37 -37 -36 -36 -36 -36 -36 -36 -36 -36 -35 -35 -35 -34 -34
-39 -38 -37 -37 -36 -36 -35 -35 -35 -35 -35 -34 -35 -35 -35 -36 -37 -37 -37 -36 -36 -35 -35 -35 -35 -36 -36 -37 -37 -37 -36 -37 -37 -36 -36 -37 -37 -37 -36 -36 -36 -35 -35
-39 -37 -37 -36 -36 -36 -35 -35 -35 -35 -35 -35 -35 -35 -36 -36 -37 -37 -37 -37 -36 -36 -36 -35 -35 -35 -36 -36 -36 -36 -36 -36 -36 -37 -37 -37 -37 -37 -37 -36 -36 -36 -35
-38 -37 -37 -36 -36 -36 -36 -35 -35 -35 -35 -35 -35 -36 -37 -37 -36 -37 -37 -37 -37 -37 -37 -36 -36 -36 -36 -36 -36 -36 -36 -36 -36 -36 -37 -37 -37 -37 -37 -37 -36 -36 -35
Height
5627 5624 5622 5619 5615 5612 5609 5606 5604 5602 5600 5598 5597 5595 5592 5590 5590 5589 5588 5589 5591 5595 5596 5597 5600 5601 5604 5604 5605 5607 5607 5608 5616 5628 5629 5631 5635 5641 5644 5645 5649 5652 5654
5604 5601 5597 5594 5591 5588 5585 5582 5579 5577 5575 5574 5573 5573 5570 5567 5566 5566 5566 5564 5563 5566 5568 5571 5576 5575 5578 5581 5583 5584 5585 5586 5588 5599 5602 5609 5613 5617 5621 5625 5629 5632 5637
5580 5576 5572 5568 5565 5562 5559 5556 5554 5552 5550 5549 5547 5546 5545 5544 5542 5541 5539 5539 5539 5541 5543 5545 5549 5551 5554 5555 5557 5561 5562 5563 5566 5571 5579 5581 5587 5593 5597 5603 5608 5612 5615
5553 5549 5544 5539 5536 5532 5528 5525 5524 5522 5520 5519 5518 5517 5514 5516 5514 5512 5508 5509 5510 5513 5516 5518 5524 5527 5530 5530 5531 5535 5536 5538 5541 5545 5553 5557 5561 5568 5572 5580 5586 5592 5596
5527 5521 5517 5512 5507 5503 5498 5495 5493 5491 5489 5488 5487 5485 5483 5482 5482 5477 5474 5476 5478 5481 5486 5489 5494 5498 5502 5504 5504 5509 5508 5511 5515 5521 5528 5531 5540 5544 5550 5555 5560 5564 5568
5504 5500 5495 5490 5485 5480 5476 5473 5469 5466 5462 5459 5455 5451 5451 5450 5445 5441 5438 5439 5444 5450 5456 5461 5465 5466 5469 5471 5473 5477 5479 5482 5489 5491 5500 5508 5520 5521 5523 5528 5533 5537 5544
5482 5478 5474 5469 5465 5461 5456 5452 5448 5444 5440 5436 5431 5426 5425 5420 5412 5409 5405 5405 5411 5416 5419 5422 5428 5432 5434 5436 5438 5440 5446 5451 5458 5465 5471 5484 5490 5498 5501 5504 5511 5514 5523
5465 5460 5456 5451 5446 5441 5437 5431 5426 5421 5416 5410 5406 5400 5397 5393 5386 5381 5377 5376 5378 5382 5384 5386 5387 5394 5398 5397 5398 5402 5410 5417 5428 5433 5440 5457 5460 5465 5467 5479 5485 5490 5493
5450 5445 5440 5434 5428 5422 5416 5410 5404 5399 5393 5387 5380 5375 5370 5366 5358 5353 5350 5350 5352 5353 5352 5351 5352 5355 5360 5359 5356 5362 5370 5383 5394 5396 5405 5419 5428 5433 5438 5444 5456 5464 5473
5434 5428 5422 5416 5410 5403 5396 5389 5383 5375 5370 5364 5359 5351 5345 5339 5332 5329 5327 5325 5326 5325 5323 5322 5321 5320 5323 5322 5318 5323 5330 5352 5350 5357 5366 5379 5390 5399 5406 5413 5426 5434 5449
5417 5411 5404 5398 5391 5384 5378 5369 5363 5356 5348 5343 5337 5331 5324 5318 5316 5312 5309 5307 5305 5304 5303 5301 5296 5291 5291 5290 5288 5292 5301 5310 5311 5315 5325 5340 5352 5363 5374 5386 5398 5406 5417
5401 5393 5386 5379 5371 5364 5358 5351 5344 5336 5331 5326 5321 5316 5309 5304 5300 5297 5293 5290 5286 5284 5281 5276 5270 5265 5262 5260 5256 5260 5266 5268 5274 5280 5288 5301 5317 5330 5343 5354 5365 5376 5388
5385 5378 5370 5362 5354 5346 5340 5333 5328 5322 5318 5313 5308 5303 5297 5290 5286 5281 5277 5273 5268 5262 5255 5247 5239 5233 5228 5226 5224 5227 5228 5232 5239 5245 5257 5271 5285 5300 5309 5317 5328 5341 5354
5369 5362 5354 5347 5340 5332 5325 5318 5314 5310 5306 5301 5296 5291 5285 5278 5272 5267 5263 5257 5251 5243 5235 5226 5213 5203 5197 5195 5195 5193 5196 5201 5208 5217 5226 5241 5252 5263 5274 5288 5298 5309 5319
5353 5346 5339 5333 5325 5319 5313 5307 5303 5299 5294 5289 5284 5279 5274 5267 5260 5254 5248 5242 5234 5225 5215 5203 5193 5184 5177 5171 5167 5167 5168 5175 5183 5192 5200 5211 5220 5231 5245 5259 5270 5278 5288
5337 5331 5325 5319 5312 5306 5301 5299 5292 5287 5282 5276 5271 5266 5261 5254 5247 5240 5234 5226 5217 5208 5197 5184 5174 5164 5156 5150 5146 5145 5148 5155 5161 5168 5178 5187 5194 5203 5219 5230 5240 5247 5262
5321 5316 5311 5305 5298 5293 5290 5287 5285 5281 5271 5267 5261 5254 5248 5242 5235 5228 5221 5212 5201 5193 5181 5169 5159 5150 5142 5136 5133 5133 5136 5139 5143 5151 5160 5168 5173 5178 5190 5201 5213 5223 5236
5307 5302 5297 5291 5286 5282 5279 5277 5273 5269 5266 5259 5250 5245 5237 5229 5222 5215 5208 5200 5191 5179 5169 5157 5148 5139 5132 5127 5123 5123 5125 5127 5131 5136 5144 5149 5154 5159 5168 5177 5189 5201 5214
5292 5288 5283 5278 5273 5271 5269 5267 5263 5259 5255 5249 5243 5234 5226 5218 5210 5202 5195 5188 5181 5172 5161 5149 5139 5132 5126 5121 5118 5116 5117 5118 5121 5125 5131 5137 5142 5146 5152 5158 5167 5177 5187
5278 5273 5269 5265 5262 5260 5259 5257 5254 5249 5244 5238 5232 5226 5219 5210 5200 5190 5182 5175 5169 5162 5154 5144 5134 5126 5120 5117 5114 5113 5112 5113 5115 5118 5122 5127 5130 5133 5136 5143 5149 5158 5166
5263 5258 5254 5252 5251 5251 5250 5247 5244 5240 5234 5228 5222 5214 5207 5199 5190 5181 5172 5165 5160 5154 5148 5140 5130 5122 5116 5112 5109 5108 5108 5109 5110 5112 5113 5115 5117 5120 5123 5127 5133 5140 5147
5248 5244 5241 5240 5241 5241 5240 5239 5235 5231 5225 5218 5211 5204 5196 5187 5178 5170 5162 5155 5151 5147 5142 5135 5128 5119 5113 5108 5105 5103 5102 5101 5102 5103 5103 5104 5105 5108 5111 5114 5120 5126 5133
5233 5230 5229 5230 5232 5232 5232 5229 5226 5222 5216 5210 5203 5195 5186 5178 5170 5163 5156 5149 5144 5140 5135 5130 5124 5118 5111 5106 5102 5100 5097 5095 5094 5094 5095 5096 5098 5100 5102 5105 5109 5115 5121
5221 5219 5220 5222 5224 5224 5223 5221 5218 5213 5208 5202 5195 5187 5179 5172 5165 5158 5151 5144 5139 5135 5131 5126 5121 5116 5111 5106 5102 5099 5094 5091 5089 5088 5087 5088 5090 5092 5095 5099 5103 5108 5113
5211 5211 5213 5215 5216 5216 5215 5213 5209 5205 5200 5194 5187 5180 5174 5167 5160 5154 5149 5143 5136 5131 5126 5122 5117 5113 5109 5105 5101 5097 5093 5089 5086 5084 5084 5084 5085 5086 5088 5091 5095 5100 5105
5202 5205 5207 5208 5209 5208 5207 5205 5201 5197 5192 5186 5180 5174 5169 5163 5158 5152 5146 5141 5135 5129 5123 5119 5114 5110 5106 5102 5099 5095 5092 5088 5083 5081 5081 5082 5082 5083 5086 5088 5090 5094 5098
Wind_Speed
78 80 81 81 82 82 84 83 84 84 83 82 84 85 85 86 91 91 88 85 85 87 90 91 88 90 92 95 94 94 91 88 89 85 83 78 77 73 74 75 74 73 73
82 83 84 85 86 88 88 87 87 84 82 83 89 89 86 87 91 92 91 88 85 83 83 84 87 83 87 90 94 94 96 95 94 93 88 84 82 79 77 77 77 77 75
85 85 86 87 88 89 89 89 91 92 90 92 96 95 93 91 92 97 97 93 89 89 87 87 87 91 89 84 86 89 89 88 93 93 94 90 87 83 82 78 76 77 77
89 89 90 91 92 93 94 94 94 95 97 99 101 102 104 101 103 104 105 100 100 94 93 93 94 93 94 89 84 82 81 81 82 85 86 89 84 81 83 82 78 76 76
87 87 88 88 88 89 90 91 91 92 94 96 99 103 106 110 110 114 115 112 108 101 100 97 104 104 101 97 93 91 89 85 84 82 80 82 85 83 78 83 84 80 79
82 80 78 76 74 74 74 75 76 78 81 83 86 89 93 94 98 104 114 121 119 119 118 116 114 111 112 109 108 104 102 96 92 89 88 86 80 83 83 80 84 83 84
70 67 65 65 65 65 66 68 69 70 70 71 73 74 75 78 83 88 94 102 111 117 118 121 121 117 117 115 109 108 110 107 104 98 94 92 91 87 85 86 83 87 81
64 63 63 64 65 68 70 71 71 72 73 74 74 75 75 76 79 81 84 85 87 90 94 99 105 109 111 115 117 112 108 108 106 103 101 94 96 95 95 88 90 81 76
61 62 64 67 70 72 72 73 73 73 73 73 73 73 73 73 75 77 78 79 79 79 80 82 85 88 91 99 107 110 110 107 105 106 102 98 98 99 98 98 92 99 86
62 64 67 70 71 72 73 73 71 71 67 67 67 66 66 65 65 66 67 69 69 71 74 77 81 84 85 88 94 97 103 105 106 106 105 103 103 101 101 100 96 96 99
64 66 67 68 70 70 70 68 65 65 65 61 57 51 51 49 45 45 47 50 53 56 61 65 70 74 78 85 91 93 94 95 98 106 108 107 107 107 105 101 97 96 92
63 65 67 68 69 69 67 65 63 57 51 45 44 44 45 44 45 44 46 49 53 57 60 67 75 82 84 84 86 87 90 94 95 98 101 106 108 109 106 103 100 96 91
62 63 65 67 66 66 65 60 51 44 40 42 41 40 42 44 44 46 49 51 55 59 61 64 67 69 72 79 86 88 88 89 91 96 95 94 95 101 105 105 103 101 97
61 63 64 63 62 63 60 51 43 41 41 40 39 37 37 38 42 46 49 51 55 57 60 64 63 62 63 61 64 74 80 83 85 83 88 90 91 91 95 100 100 101 101
61 61 61 59 59 59 51 43 40 42 41 38 36 35 36 38 39 41 44 49 51 55 60 60 53 51 53 57 60 60 69 72 73 74 74 77 86 91 90 89 92 96 100
58 57 57 56 55 51 41 36 42 40 39 40 39 40 40 41 43 44 45 45 48 53 56 54 50 50 49 48 47 45 50 57 62 66 66 66 72 82 86 88 88 91 93
54 55 55 53 50 43 36 35 33 36 40 38 38 41 42 42 43 45 45 45 48 51 53 50 49 49 44 40 38 38 41 45 51 56 59 57 60 67 73 82 88 89 89
51 52 53 48 44 36 33 34 33 32 32 35 40 40 42 43 45 46 45 45 45 49 49 46 44 42 37 33 31 32 34 38 43 52 54 53 55 59 64 70 79 85 87
52 52 50 44 40 32 31 32 32 33 33 34 37 42 43 44 45 46 46 44 42 43 46 43 40 37 31 28 26 26 28 30 32 36 42 48 52 55 58 63 69 75 81
52 52 51 41 34 29 30 30 31 33 34 36 39 40 41 42 44 47 47 44 39 38 40 41 37 32 29 24 22 21 23 26 29 34 40 44 47 49 51 55 60 64 71
55 55 47 36 29 26 28 29 30 32 34 38 40 41 43 43 43 43 42 39 33 31 33 35 36 30 25 23 21 21 22 25 28 32 35 38 41 42 44 47 51 55 61
50 49 38 31 25 25 25 27 29 31 34 38 41 43 43 42 41 41 39 34 28 25 26 29 32 29 24 21 20 21 22 23 26 29 31 31 32 34 36 40 44 48 52
45 39 30 24 22 22 24 25 28 30 34 37 39 40 40 39 38 35 34 28 25 24 24 26 28 30 28 21 17 17 18 20 20 20 21 23 25 28 31 33 37 40 44
35 27 24 21 20 20 22 24 26 29 33 35 36 37 37 36 32 30 32 27 23 23 22 22 24 24 24 18 18 21 20 18 18 20 20 21 24 26 27 29 31 34 36
28 23 21 19 18 19 21 23 24 28 31 32 33 34 32 32 30 27 28 28 23 21 21 21 20 20 19 17 19 20 19 18 17 18 16 18 21 24 24 26 28 30 30
24 23 19 17 16 17 20 21 23 27 29 30 32 31 29 28 29 27 25 25 25 24 20 19 18 17 17 16 16 16 17 19 15 12 15 15 14 18 21 24 27 29 31
Wind_Direction
277 276 276 276 276 275 274 272 271 271 270 268 268 267 267 269 269 270 270 270 267 264 264 264 266 266 264 262 262 260 260 260 258 257 257 256 256 254 254 254 255 255 255
282 281 280 278 275 274 273 274 273 270 269 270 268 266 268 271 270 270 267 266 268 268 268 268 267 263 266 266 263 261 260 259 258 254 257 259 259 257 254 255 256 255 256
283 282 280 278 277 275 274 272 270 270 268 268 267 265 266 266 269 269 264 264 264 264 265 264 265 263 261 262 261 260 259 261 261 257 254 256 258 259 257 255 254 255 255
285 284 282 281 279 278 276 275 273 271 269 268 268 268 268 267 267 266 266 261 260 260 260 262 262 259 261 257 258 260 258 258 261 262 259 257 257 260 261 258 256 254 254
285 284 283 282 282 282 281 280 280 278 276 274 271 269 268 268 266 265 265 262 261 262 263 263 263 262 262 259 257 259 261 261 260 260 260 262 260 258 262 261 257 253 251
285 284 284 285 285 284 283 282 282 281 280 279 278 276 273 272 270 268 266 265 264 260 257 261 263 265 267 266 265 262 260 262 263 262 260 260 262 264 264 261 258 256 252
287 288 288 288 288 289 289 288 287 286 284 283 281 280 278 276 274 272 270 267 265 265 266 267 265 264 264 265 265 264 263 263 263 262 261 261 260 259 258 260 260 257 252
288 289 290 291 293 294 293 292 291 290 289 287 285 283 281 279 276 274 273 272 271 269 267 265 263 262 261 261 262 261 260 259 260 261 260 258 256 256 256 255 253 251 247
287 289 290 292 294 294 294 294 293 291 290 289 288 286 285 282 280 278 276 274 273 271 270 268 266 264 261 258 256 256 257 257 256 255 254 253 251 251 253 252 251 252 251
290 291 291 292 293 294 295 294 294 294 294 293 292 291 288 284 281 279 277 275 273 270 267 266 265 264 263 260 258 256 254 255 251 249 249 249 249 248 249 251 250 251 251
291 292 292 294 295 295 295 297 298 299 298 297 294 292 289 286 284 283 283 284 282 279 275 271 268 267 265 263 260 258 258 254 250 249 247 245 245 246 246 248 249 251 251
292 294 295 296 296 298 299 301 302 300 297 296 299 300 296 291 289 285 285 285 285 288 287 280 273 268 266 263 262 259 256 253 252 250 247 246 242 242 244 245 246 246 245
294 295 296 296 299 299 302 304 301 297 297 300 301 303 298 293 286 284 288 290 292 292 297 296 288 279 271 265 262 259 256 254 251 250 249 247 246 243 242 243 243 242 241
295 295 296 298 300 300 304 302 298 299 301 301 304 304 307 301 293 287 288 290 294 296 300 302 295 287 280 271 263 259 254 252 251 251 249 246 245 243 242 242 242 241 240
295 295 296 299 300 301 301 297 298 301 301 302 304 308 307 309 309 304 297 296 297 298 303 305 298 291 282 277 273 261 254 249 249 249 249 248 244 242 240 240 241 240 239
292 293 297 300 300 300 295 293 300 302 306 307 310 310 309 309 308 308 310 307 303 305 311 309 305 301 293 284 275 267 253 248 248 244 245 247 246 244 240 238 238 239 239
292 294 298 300 298 295 290 292 293 301 307 310 312 312 311 311 311 310 311 311 312 314 318 315 310 306 299 289 275 267 259 251 246 242 243 244 245 244 241 238 237 237 238
296 298 301 300 296 289 288 292 295 299 303 310 316 315 313 312 311 310 312 313 313 318 325 319 312 309 304 294 281 270 261 254 247 243 244 237 241 245 243 240 238 237 236
297 298 299 298 292 283 287 292 297 303 306 311 316 317 317 315 312 311 312 312 311 318 327 326 316 311 306 297 289 276 264 254 249 241 233 237 244 248 247 243 239 237 235
295 297 298 292 282 279 286 294 300 306 311 314 316 316 316 316 314 313 311 310 309 316 324 332 324 315 307 298 289 277 267 255 243 240 242 247 251 252 250 246 242 239 236
294 294 296 285 271 276 286 294 302 308 313 317 318 319 319 318 316 313 308 308 305 311 324 333 333 322 313 302 288 273 268 267 262 258 257 257 256 255 250 245 241 239 237
293 292 288 272 262 274 287 296 304 310 316 319 320 322 323 325 324 321 318 314 309 309 321 332 338 339 322 311 300 287 274 267 264 263 263 261 257 250 244 239 237 237 236
291 288 274 251 260 275 287 298 305 314 318 320 322 325 328 327 329 329 328 318 316 316 320 328 338 338 341 332 322 314 298 278 264 262 263 259 253 250 244 238 234 233 234
289 272 245 246 261 276 290 302 310 317 320 322 327 331 331 331 331 333 341 331 319 318 318 324 331 338 332 330 334 337 327 303 283 264 247 245 245 240 239 236 232 230 229
278 240 232 246 263 280 295 302 315 320 321 326 332 332 331 335 334 331 337 346 336 323 320 321 326 333 334 320 315 328 333 327 297 286 267 261 252 238 233 230 227 225 222
242 222 232 247 268 287 295 307 318 321 323 330 333 331 327 329 336 334 328 334 343 351 343 329 323 326 335 330 324 320 326 339 326 292 276 255 261 243 239 234 224 227 221